Weather History for KSGJ - September, 2013

Change the Weather History Date:

Tuesday, September 17, 2013

  Actual Average Record
Temperature  
Mean Temperature 80 °F -  
Max Temperature 87 °F 83 °F 93 °F (1987)
Min Temperature 75 °F 71 °F 62 °F (2001)
Cooling Degree Days 16    
Growing Degree Days 30 (Base 50)    
Moisture  
Dew Point 74 °F    
Average Humidity 78    
Maximum Humidity 94    
Minimum Humidity 63    
Precipitation  
Precipitation 0.03 in - - ()
Sea Level Pressure  
Sea Level Pressure 30.07 in    
Wind  
Wind Speed 8 mph (ENE)    
Max Wind Speed 20 mph    
Max Gust Speed 22 mph    
Visibility 10 miles    
Events Rain    
Averages and records for this station are not official NWS values.
T = Trace of Precipitation, MM = Missing Value Source: NWS Daily Summary

Daily Weather History Graph

Daily Weather History Graph

Search for Another Location

Airport or City:

Trip Planner

Search our weather history database for the weather conditions in past years. The results will help you decide how hot, cold, wet, or windy it might be!

Date:

Astronomy

Sep. 17, 2013 Rise Set
Actual Time 7:11 AM EDT 7:27 PM EDT
Civil Twilight 6:47 AM EDT 7:51 PM EDT
Nautical Twilight 6:19 AM EDT 8:19 PM EDT
Astronomical Twilight 5:50 AM EDT 8:47 PM EDT
Moon 6:10 PM EDT (9/17) 5:10 AM EDT (9/17)
Length of Visible Light 13h 04m
Length of Day
12h 16m
Waxing Gibbous, 96% of the Moon is Illuminated
Sep 17
Waxing Gibbous
Sep 19
Full
Sep 26
Last Quarter
Oct 4
New
Oct 11
First Quarter

Hourly Weather History & Observations

Time (EDT) Temp. Heat Index Dew Point Humidity Pressure Visibility Wind Dir Wind Speed Gust Speed Precip Events Conditions
12:14 AM 80.6 °F 86.2 °F 75.2 °F 84% 30.06 in 10.0 mi East 5.8 mph - N/A   Mostly Cloudy
12:58 AM 81.0 °F 86.2 °F 73.9 °F 79% 30.05 in 10.0 mi East 6.9 mph - N/A   Scattered Clouds
1:58 AM 80.1 °F 85.1 °F 75.0 °F 85% 30.05 in 10.0 mi East 4.6 mph - N/A   Partly Cloudy
2:41 AM 78.8 °F - 73.4 °F 83% 30.05 in 10.0 mi Calm Calm - N/A   Mostly Cloudy
2:58 AM 78.1 °F - 73.9 °F 87% 30.04 in 10.0 mi Calm Calm - N/A   Mostly Cloudy
3:05 AM 77.0 °F - 73.4 °F 89% 30.03 in 10.0 mi Calm Calm - N/A   Scattered Clouds
3:58 AM 75.9 °F - 73.0 °F 91% 30.03 in 10.0 mi Calm Calm - N/A   Scattered Clouds
4:27 AM 77.0 °F - 73.4 °F 89% 30.04 in 10.0 mi SSE 3.5 mph - N/A   Mostly Cloudy
4:50 AM 78.8 °F - 73.4 °F 83% 30.04 in 10.0 mi Calm Calm - N/A   Scattered Clouds
4:58 AM 77.0 °F - 73.0 °F 88% 30.04 in 10.0 mi WSW 3.5 mph - N/A   Partly Cloudy
5:58 AM 75.0 °F - 73.0 °F 94% 30.05 in 10.0 mi Calm Calm - N/A   Clear
6:58 AM 75.0 °F - 73.0 °F 94% 30.06 in 10.0 mi Calm Calm - N/A   Clear
7:58 AM 75.9 °F - 73.0 °F 91% 30.08 in 10.0 mi Calm Calm - N/A   Clear
8:58 AM 80.1 °F 85.4 °F 75.9 °F 87% 30.09 in 10.0 mi North 3.5 mph - N/A   Scattered Clouds
9:34 AM 82.4 °F 89.5 °F 75.2 °F 79% 30.10 in 10.0 mi NNE 6.9 mph - N/A   Mostly Cloudy
9:57 AM 82.9 °F 89.4 °F 73.9 °F 74% 30.11 in 10.0 mi ENE 8.1 mph - N/A   Scattered Clouds
10:58 AM 86.0 °F 93.8 °F 73.9 °F 67% 30.12 in 10.0 mi ENE 11.5 mph - N/A   Partly Cloudy
11:13 AM 84.2 °F 90.9 °F 73.4 °F 70% 30.12 in 10.0 mi ENE 11.5 mph - N/A   Mostly Cloudy
11:58 AM 86.0 °F 93.8 °F 73.9 °F 67% 30.12 in 10.0 mi ENE 11.5 mph - N/A   Mostly Cloudy
12:11 PM 86.0 °F 93.4 °F 73.4 °F 66% 30.12 in 10.0 mi NE 15.0 mph - N/A   Scattered Clouds
12:51 PM 86.0 °F 93.4 °F 73.4 °F 66% 30.10 in 10.0 mi ENE 13.8 mph - N/A   Mostly Cloudy
12:58 PM 84.9 °F 92.1 °F 73.9 °F 69% 30.10 in 10.0 mi NE 15.0 mph - N/A   Mostly Cloudy
1:10 PM 84.2 °F 92.3 °F 75.2 °F 74% 30.10 in 10.0 mi NE 17.3 mph - N/A   Mostly Cloudy
1:15 PM 84.2 °F 92.3 °F 75.2 °F 74% 30.10 in 10.0 mi NE 18.4 mph - N/A   Mostly Cloudy
1:44 PM 86.0 °F 93.4 °F 73.4 °F 66% 30.09 in 10.0 mi NE 19.6 mph - N/A   Scattered Clouds
1:58 PM 84.9 °F 91.4 °F 73.0 °F 67% 30.09 in 10.0 mi ENE 17.3 mph - N/A   Scattered Clouds
2:58 PM 86.0 °F 92.2 °F 72.0 °F 63% 30.06 in 10.0 mi NE 15.0 mph 21.9 mph N/A   Scattered Clouds
3:58 PM 86.0 °F 93.0 °F 73.0 °F 65% 30.05 in 10.0 mi ENE 18.4 mph - N/A   Scattered Clouds
4:58 PM 84.9 °F 91.4 °F 73.0 °F 67% 30.04 in 10.0 mi ENE 13.8 mph - N/A   Scattered Clouds
5:17 PM 84.2 °F 90.9 °F 73.4 °F 70% 30.03 in 10.0 mi ENE 13.8 mph - N/A   Mostly Cloudy
5:58 PM 82.9 °F 89.4 °F 73.9 °F 74% 30.04 in 10.0 mi ENE 16.1 mph - N/A   Mostly Cloudy
6:58 PM 80.1 °F 85.1 °F 75.0 °F 85% 30.05 in 10.0 mi ENE 15.0 mph - 0.02 in Rain Light Rain
7:42 PM 80.6 °F 85.4 °F 73.4 °F 79% 30.05 in 10.0 mi East 12.7 mph - 0.00 in   Mostly Cloudy
7:52 PM 80.6 °F 85.4 °F 73.4 °F 79% 30.05 in 10.0 mi ENE 17.3 mph - 0.00 in   Mostly Cloudy
7:58 PM 80.1 °F 84.5 °F 73.9 °F 81% 30.05 in 10.0 mi ENE 15.0 mph - 0.00 in   Mostly Cloudy
8:15 PM 80.6 °F 85.4 °F 73.4 °F 79% 30.05 in 10.0 mi East 17.3 mph - N/A   Mostly Cloudy
8:40 PM 80.6 °F 85.4 °F 73.4 °F 79% 30.05 in 10.0 mi ENE 17.3 mph - N/A   Mostly Cloudy
8:58 PM 81.0 °F 85.8 °F 73.0 °F 77% 30.06 in 10.0 mi ENE 17.3 mph - N/A   Mostly Cloudy
9:58 PM 80.1 °F 84.5 °F 73.9 °F 81% 30.06 in 10.0 mi East 17.3 mph - 0.01 in   Overcast
10:30 PM 78.8 °F - 71.6 °F 78% 30.07 in 10.0 mi East 18.4 mph - N/A   Scattered Clouds
10:58 PM 80.1 °F 84.2 °F 73.0 °F 79% 30.07 in 10.0 mi East 18.4 mph - N/A   Partly Cloudy
11:58 PM 80.1 °F 84.2 °F 73.0 °F 79% 30.07 in 10.0 mi ENE 17.3 mph - N/A   Mostly Cloudy